Flag for Russia Weather past 2 weeks in Syktyvkar, Russia

Now
64 °F

Scattered clouds.


Feels Like: 64 °F
Forecast: 49 / 60 °F
Wind: 8 mph from North

Location: Syktyvkar Airport

Current Time: Jul 23, 2014 at 11:30:41 AM

Latest Report: Jul 23, 2014 at 9:30 AM


Visibility: 6 mi

Pressure: 29.89 "Hg

Humidity: 52%

Dew point: 46 °F

Location of SyktyvkarLocation

Historic Weather in Syktyvkar — Graph

°F

Syktyvkar temperature yesterday

Maximum temperature yesterday: 75 °F (at 4:30 PM)
Minimum temperature yesterday: 54 °F (at 2:30 AM)
Average temperature yesterday: 64 °F

Past Weeks' High & Low Weather Summary

 TemperatureHumidityPressure
High81 °F (Jul 14, 4:00 PM)94% (Jul 14, 10:00 PM)30.24 "Hg (Jul 14, 10:00 PM)
Low39 °F (Jul 12, 3:00 AM)29% (Jul 8, 2:00 PM)29.83 "Hg (Jul 9, 8:00 AM)
Average59 °F62%30.02 "Hg
* Reported Jul 8 9:00 AM — Jul 23 9:00 AM, Syktyvkar, Weather by CustomWeather, © 2014

Note: Actual official high and low records may vary slightly from our data, if they occured in-between our weather recording intervals... More about our weather records

Advertising

Syktyvkar weather history for previous 24 hours

 ConditionsComfort  
Time TempWeatherWind HumidityBarometerVisibility
9:00 AM
Jul 23
64 °FSunny.6 mph52%29.89 "Hg10 mi
8:30 AM63 °FScattered clouds.6 mph56%29.89 "Hg6 mi
8:00 AM61 °FSunny.6 mph59%29.89 "Hg10 mi
7:30 AM59 °FSunny.6 mph63%29.89 "Hg10 mi
7:00 AM59 °FSunny.3 mph59%29.89 "Hg10 mi
6:30 AM57 °FSunny.6 mph63%29.89 "Hg10 mi
6:00 AM57 °FSunny.6 mph63%29.89 "Hg10 mi
5:30 AM55 °FSunny.8 mph67%29.89 "Hg10 mi
5:00 AM55 °FSunny.6 mph67%29.89 "Hg10 mi
3:30 AM57 °FClear.8 mph59%29.86 "Hg10 mi
3:00 AM57 °FClear.8 mph59%29.86 "Hg10 mi
9:00 PM
Jul 22
68 °FSunny.6 mph40%29.86 "Hg10 mi
8:30 PM68 °FPartly sunny.6 mph40%29.86 "Hg6 mi
8:00 PM68 °FPartly sunny.6 mph40%29.86 "Hg6 mi
7:30 PM70 °FSunny.8 mph35%29.86 "Hg10 mi
7:00 PM72 °FSunny.10 mph31%29.86 "Hg10 mi
6:30 PM72 °FSunny.10 mph31%29.86 "Hg10 mi
6:00 PM72 °FSunny.8 mph33%29.86 "Hg10 mi
5:30 PM72 °FSunny.8 mph33%29.86 "Hg10 mi
5:00 PM73 °FPassing clouds.10 mph33%29.86 "HgN/A
4:30 PM75 °FSunny.10 mph29%29.86 "Hg10 mi
4:00 PM73 °FSunny.13 mph31%29.86 "Hg10 mi
3:30 PM73 °FSunny.10 mph31%29.86 "Hg10 mi
3:00 PM73 °FPartly sunny.10 mph33%29.86 "Hg6 mi
2:30 PM72 °FOvercast.10 mph36%29.86 "Hg6 mi
2:00 PM72 °FOvercast.13 mph33%29.86 "Hg6 mi
1:30 PM70 °FOvercast.8 mph35%29.86 "Hg6 mi
1:00 PM70 °FSunny.10 mph38%29.89 "Hg10 mi
12:30 PM70 °FOvercast.8 mph40%29.89 "Hg6 mi
12:00 PM70 °FOvercast.8 mph38%29.89 "Hg6 mi
11:30 AM68 °FSunny.8 mph40%29.89 "Hg10 mi
11:00 AM68 °FSunny.10 mph43%29.89 "Hg10 mi
Weather by CustomWeather, © 2014

See weather overviewHow to use our weather pages